Regional Weather Roundup
Issued by NWS

Home | Current Version | Previous Version | Text Only | Print | Product List | Glossary Off
Versions: 1 2 3 4 5 6 7 8 9 10 11 12 13 14 15 16 17 18 19 20 21 22 23 24 25 26 27 28 29 30 31 32 33 34 35 36 37 38 39 40 41 42 43 44 45 46 47 48 49 50

000
ASUS43 KOAX 200010
RWRNE

WEATHER ROUNDUP FOR NEBRASKA
NATIONAL WEATHER SERVICE OMAHA NE
600 PM CST SUN FEB 19 2017

NOTES: SATELLITE DATA IS BEING USED TO AUGMENT CLOUD COVER ABOVE
       12000 FEET.
       "FAIR" INDICATES FEW OR NO CLOUDS BELOW 12,000 FEET WITH NO
       SIGNIFICANT WEATHER AND/OR OBSTRUCTIONS TO VISIBILITY.

  * THESE STATIONS DO NOT REPORT WEATHER SUCH AS RAIN...SNOW OR FOG.

NEZ001>004-019>022-054>056-200100-
NEBRASKA PANHANDLE

CITY           SKY/WX    TMP DP  RH WIND       PRES   REMARKS
SCOTTSBLUFF    CLOUDY    54  34  46 E7        29.57R
6HR MIN TEMP:  49; 6HR MAX TEMP:  59;

ALLIANCE       CLOUDY    54  33  45 SE7       29.58S
6HR MIN TEMP:  51; 6HR MAX TEMP:  62;

CHADRON        CLOUDY    59  34  39 S13       29.56R
6HR MIN TEMP:  58; 6HR MAX TEMP:  68;

KIMBALL        CLOUDY    56  32  40 NE3       29.57S
SIDNEY         CLOUDY    59  36  42 S23G30    29.58R
6HR MIN TEMP:  57; 6HR MAX TEMP:  64;

$$

NEZ057>060-069>072-079>082-200100-
SOUTHWEST NEBRASKA

CITY           SKY/WX    TMP DP  RH WIND       PRES   REMARKS
NORTH PLATTE   TSTM      67  45  45 S12       29.62F
6HR MIN TEMP:  61; 6HR MAX TEMP:  70; 6HR PCP: TRACE;

IMPERIAL       CLOUDY    64  40  41 S13       29.62S
6HR MIN TEMP:  55; 6HR MAX TEMP:  68;

LEXINGTON      PTCLDY    67  44  42 SE16      29.67S
MCCOOK         PTCLDY    70  50  49 S18G28    29.65R
6HR MIN TEMP:  59; 6HR MAX TEMP:  75;

OGALLALA       CLOUDY    66  42  41 S16G24    29.61R
$$

NEZ005>010-023>029-035>040-094-200100-
NORTH CENTRAL NEBRASKA

CITY           SKY/WX    TMP DP  RH WIND       PRES   REMARKS
VALENTINE      CLOUDY    60  38  43 S9        29.59R
6HR MIN TEMP:  57; 6HR MAX TEMP:  67;

AINSWORTH      CLOUDY    60  44  54 S15       29.61R
BROKEN BOW     MOCLDY    66  45  46 S13       29.67R
6HR MIN TEMP:  60; 6HR MAX TEMP:  70;

O`NEILL        CLOUDY    65  44  45 S15       29.64F
ORD            CLOUDY    66  42  41 S14       29.67S
6HR MIN TEMP:  61; 6HR MAX TEMP:  73;

THEDFORD       CLOUDY    63  44  50 S12G18    29.65R
$$

NEZ041-046>049-061>064-073>077-083>087-200100-
SOUTH CENTRAL NEBRASKA

CITY           SKY/WX    TMP DP  RH WIND       PRES   REMARKS
GRAND ISLAND   MOCLDY    61  51  70 S16       29.74R
6HR MIN TEMP:  61; 6HR MAX TEMP:  71;

AURORA         MOCLDY    60  49  68 S14G20    29.75R
HASTINGS       PTCLDY    61  49  64 S14       29.74S
6HR MIN TEMP:  61; 6HR MAX TEMP:  71;

HEBRON         PTCLDY    58  50  73 S8        29.78F
HOLDREGE       CLOUDY    65  44  46 SE20G25   29.70R
KEARNEY *      PTCLDY    64  45  48 S20G25    29.71S
YORK           PTCLDY    59  50  72 S12       29.76S
$$

NEZ011>018-030>034-042>045-200100-
NORTHEAST NEBRASKA

CITY           SKY/WX    TMP DP  RH WIND       PRES   REMARKS
NORFOLK        CLOUDY    63  48  58 S20G26    29.71S
6HR MIN TEMP:  61; 6HR MAX TEMP:  70;

ALBION         CLOUDY    63  48  57 S15       29.71S
BLAIR          PTCLDY    66  53  62 S15       29.79R
FREMONT        PTCLDY    66  50  56 SE13      29.77S
TEKAMAH        PTCLDY    61  50  67 S12       29.77S
6HR MIN TEMP:  61; 6HR MAX TEMP:  69;

WAYNE          CLOUDY    60  51  69 S15       29.73R
$$

NEZ050>053-065>068-078-088>093-200100-
SOUTHEAST NEBRASKA

CITY           SKY/WX    TMP DP  RH WIND       PRES   REMARKS
LINCOLN        CLEAR     64  51  62 S12       29.79R
6HR MIN TEMP:  64; 6HR MAX TEMP:  73;

OMAHA EPPLEY   MOCLDY    69  52  54 S20G26    29.80R
6HR MIN TEMP:  64; 6HR MAX TEMP:  71;

BEATRICE       CLEAR     61  52  73 S15       29.80F
FALLS CITY     CLOUDY    67  54  63 S13       29.84R
6HR MIN TEMP:  65; 6HR MAX TEMP:  72;

NEBRASKA CITY  CLOUDY    66  48  52 S10       29.82S
PLATTSMOUTH    CLOUDY    67  48  51 SE10      29.81S
$$

NEZ044-045-051>053-067-200100-
OMAHA AREA

CITY           SKY/WX    TMP DP  RH WIND       PRES   REMARKS
OMAHA EPPLEY   MOCLDY    69  52  54 S20G26    29.80R
6HR MIN TEMP:  64; 6HR MAX TEMP:  71;

BLAIR          PTCLDY    66  53  62 S15       29.79R
FREMONT        PTCLDY    66  50  56 SE13      29.77S
MILLARD        CLOUDY    69  54  57 S9        29.80R
OFFUTT AFB     CLOUDY    67  54  62 S14       29.80R
PLATTSMOUTH    CLOUDY    67  48  51 SE10      29.81S
WAHOO          FAIR      65  50  58 S17       29.78R
$$




USA.gov is the U.S. government's official web portal to all federal, state and local government web resources and services.